Home   Weather   Boulder   Past weeks

Flag for USA Past Weather in Boulder, Colorado, USA — Yesterday and Last 2 Weeks

Now
77 °F

Partly cloudy.


Feels Like: 77 °F
Forecast: 62 / 86 °F
Wind: 5 mph from Southwest

Location: Broomfield / Jeffco

Current Time: Aug 19, 2017 at 10:24:35 pm

Latest Report: Aug 19, 2017 at 9:47 pm


Visibility: 40 mi

Pressure: 30.10 "Hg (24.99 "Hg at 1623m altitude)

Humidity: 24%

Dew Point: 37 °F

Location of BoulderLocation

Past Weather in Boulder — Graph

°F

Boulder Temperature Yesterday

Maximum temperature yesterday: 86 °F (at 2:59 pm)
Minimum temperature yesterday: 57 °F (at 6:55 am)
Average temperature yesterday: 75 °F

High & Low Weather Summary for the Past Weeks

 TemperatureHumidityPressure
High91 °F (Aug 19, 1:47 pm)100% (Aug 7, 6:13 am)30.36 "Hg (Aug 7, 6:13 am)
Low54 °F (Aug 6, 4:14 am)12% (Aug 19, 1:47 pm)29.90 "Hg (Aug 15, 4:13 pm)
Average66 °F62%30.15 "Hg
* Reported Aug 4 8:07 pm — Aug 19 8:47 pm, Boulder. Weather by CustomWeather, © 2017

Note: Actual official high and low records may vary slightly from our data, if they occured in-between our weather recording intervals... More about our weather records

Advertising

Boulder Weather History for the Previous 24 Hours

Scroll right to see more
 ConditionsComfort  
Time TempWeatherWind HumidityBarometerVisibility
8:47 pm
Sat, Aug 19
77 °FPartly cloudy.5 mph28%30.09 "Hg40 mi
7:50 pm79 °FBroken clouds.3 mph24%30.07 "Hg40 mi
6:47 pm81 °FScattered showers. Broken clouds.8 mph28%30.06 "Hg40 mi
5:55 pm82 °FScattered showers. Broken clouds.9 mph21%30.06 "Hg40 mi
5:15 pm86 °FScattered showers. Broken clouds.12 mph17%30.03 "Hg40 mi
4:47 pm88 °FBroken clouds.3 mph15%30.02 "Hg40 mi
3:47 pm90 °FScattered clouds.6 mph13%30.03 "Hg50 mi
2:47 pm91 °FScattered clouds.14 mph12%30.05 "Hg50 mi
1:47 pm91 °FScattered clouds.18 mph12%30.07 "Hg50 mi
12:45 pm90 °FScattered clouds.14 mph13%30.09 "Hg50 mi
11:47 am90 °FScattered clouds.7 mph15%30.11 "Hg50 mi
10:47 am84 °FScattered clouds.7 mph25%30.13 "Hg50 mi
9:47 am77 °FPassing clouds.5 mph32%30.14 "Hg50 mi
8:47 am72 °FPassing clouds.No wind41%30.14 "Hg50 mi
6:47 am66 °FPassing clouds.No wind37%30.14 "Hg50 mi
5:47 am66 °FPassing clouds.No wind37%30.14 "Hg50 mi
Weather by CustomWeather, © 2017

See weather overviewHow to use our weather pages